Location: Unspecified
(0.0000°N, 0.0000°E)
Time: 00:12:23
(UTC+00:00)

N. Korean satellite - Pass Details

Date: 17 July 2017
Orbit: 461 x 516 km, 97.2° (Epoch: 21 September)

Event Time Altitude Azimuth Distance (km) Brightness Sun altitude
Rises 18:31:59 0° 168° (SSE) 2,556 9.9 -6.0°
Reaches altitude 10° 18:34:04 10° 168° (SSE) 1,663 9.0 -6.5°
Maximum altitude 18:37:38 84° 81° (E) 483 6.5 -7.3°
Drops below altitude 10° 18:41:08 10° 351° (N) 1,625 9.7 -8.1°
Sets 18:43:09 0° 350° (N) 2,491 10.6 -8.6°
